H1 CPF 2 NER 2025 9 14 9 257 01 glonass127 H2 1106403 9127 37869 2025 9 14 0 0 0 2025 9 17 23 45 0 900 1 1 0 0 0 1 H9 10 0 60932 0.00000 0 -10675219.699 -4052923.774 22859336.912 10 0 60932 900.00000 0 -10850594.398 -6810863.054 22103739.000 10 0 60932 1800.00000 0 -11216088.224 -9430725.732 20920883.783 10 0 60932 2700.00000 0 -11743782.468 -11849797.695 19333365.042 10 0 60932 3600.00000 0 -12395518.337 -14012647.402 17371607.070 10 0 60932 4500.00000 0 -13124560.817 -15873200.418 15073306.629 10 0 60932 5400.00000 0 -13877642.626 -17396437.813 12482733.352 10 0 60932 6300.00000 0 -14597304.757 -18559647.249 9649899.428 10 0 60932 7200.00000 0 -15224436.947 -19353173.346 6629612.252 10 0 60932 8100.00000 0 -15700912.011 -19780634.168 3480426.428 10 0 60932 9000.00000 0 -15972202.891 -19858592.739 263514.170 10 0 60932 9900.00000 0 -15989870.825 -19615695.355 -2958524.479 10 0 60932 10800.00000 0 -15713817.418 -19091311.304 -6122888.207 10 0 60932 11700.00000 0 -15114202.559 -18333730.214 -9167812.936 10 0 60932 12600.00000 0 -14172943.710 -17397992.797 -12033796.462 10 0 60932 13500.00000 0 -12884729.615 -16343447.047 -14664783.293 10 0 60932 14400.00000 0 -11257502.155 -15231134.448 -17009284.268 10 0 60932 15300.00000 0 -9312383.048 -14121118.514 -19021406.690 10 0 60932 16200.00000 0 -7083046.124 -13069870.844 -20661772.671 10 0 60932 17100.00000 0 -4614560.100 -12127827.487 -21898305.918 10 0 60932 18000.00000 0 -1961749.853 -11337221.049 -22706870.136 10 0 60932 18900.00000 0 812854.895 -10730281.775 -23071745.743 10 0 60932 19800.00000 0 3641396.768 -10327884.619 -22985935.261 10 0 60932 20700.00000 0 6453293.063 -10138699.663 -22451291.638 10 0 60932 21600.00000 0 9177953.126 -10158881.152 -21478467.734 10 0 60932 22500.00000 0 11747496.034 -10372306.934 -20086689.064 10 0 60932 23400.00000 0 14099354.264 -10751356.209 -18303355.722 10 0 60932 24300.00000 0 16178654.462 -11258190.323 -16163482.952 10 0 60932 25200.00000 0 17940276.440 -11846479.897 -13708993.081 10 0 60932 26100.00000 0 19350505.742 -12463502.745 -10987874.526 10 0 60932 27000.00000 0 20388212.864 -13052521.666 -8053226.056 10 0 60932 27900.00000 0 21045512.627 -13555339.834 -4962206.529 10 0 60932 28800.00000 0 21327879.382 -13914924.645 -1774911.938 10 0 60932 29700.00000 0 21253716.720 -14077988.759 1446797.394 10 0 60932 30600.00000 0 20853403.166 -13997419.639 4640496.171 10 0 60932 31500.00000 0 20167856.893 -13634455.983 7744396.640 10 0 60932 32400.00000 0 19246682.112 -12960520.716 10698531.499 10 0 60932 33300.00000 0 18145976.449 -11958635.019 13445895.303 10 0 60932 34200.00000 0 16925891.899 -10624355.595 15933523.797 10 0 60932 35100.00000 0 15648051.278 -8966197.202 18113492.282 10 0 60932 36000.00000 0 14372927.179 -7005523.577 19943815.936 10 0 60932 36900.00000 0 13157291.283 -4775911.406 21389237.013 10 0 60932 37800.00000 0 12051838.387 -2322013.148 22421885.972 10 0 60932 38700.00000 0 11099082.042 302035.595 23021805.762 10 0 60932 39600.00000 0 10331607.474 3034600.297 23177330.548 10 0 60932 40500.00000 0 9770753.003 5808843.979 22885312.481 10 0 60932 41400.00000 0 9425773.964 8555244.041 22151192.220 10 0 60932 42300.00000 0 9293523.884 11204228.517 20988911.189 10 0 60932 43200.00000 0 9358666.877 13688825.611 19420665.890 10 0 60932 44100.00000 0 9594413.814 15947219.260 17476506.981 10 0 60932 45000.00000 0 9963753.476 17925106.395 15193788.422 10 0 60932 45900.00000 0 10421129.347 19577758.816 12616474.616 10 0 60932 46800.00000 0 10914493.940 20871703.761 9794316.248 10 0 60932 47700.00000 0 11387656.164 21785952.039 6781908.339 10 0 60932 48600.00000 0 11782824.124 22312720.743 3637646.808 10 0 60932 49500.00000 0 12043236.474 22457618.106 422602.432 10 0 60932 50400.00000 0 12115770.607 22239280.472 -2800666.478 10 0 60932 51300.00000 0 11953415.807 21688474.541 -5969339.357 10 0 60932 52200.00000 0 11517504.286 20846701.039 -9021571.887 10 0 60932 53100.00000 0 10779602.557 19764357.715 -11897721.922 10 0 60932 54000.00000 0 9722979.626 18498539.025 -14541536.902 10 0 60932 54900.00000 0 8343586.346 17110565.990 -16901277.309 10 0 60932 55800.00000 0 6650501.231 15663351.944 -18930751.792 10 0 60932 56700.00000 0 4665821.177 14218717.250 -20590241.575 10 0 60932 57600.00000 0 2423999.607 12834768.467 -21847294.196 10 0 60932 58500.00000 0 -29341.289 11563454.702 -22677369.607 10 0 60932 59400.00000 0 -2639074.681 10448405.980 -23064325.126 10 0 60932 60300.00000 0 -5342639.446 9523145.990 -23000729.429 10 0 60932 61200.00000 0 -8072429.003 8809755.016 -22487999.636 10 0 60932 62100.00000 0 -10758397.434 8318039.005 -21536359.547 10 0 60932 63000.00000 0 -13330772.613 8045238.557 -20164620.939 10 0 60932 63900.00000 0 -15722761.791 7976288.135 -18399793.668 10 0 60932 64800.00000 0 -17873135.995 8084611.982 -16276533.892 10 0 60932 65700.00000 0 -19728585.228 8333420.264 -13836442.965 10 0 60932 66600.00000 0 -21245746.742 8677447.720 -11127232.594 10 0 60932 67500.00000 0 -22392823.124 9065058.561 -8201774.285 10 0 60932 68400.00000 0 -23150724.726 9440626.290 -5117053.238 10 0 60932 69300.00000 0 -23513691.424 9747086.033 -1933048.438 10 0 60932 70200.00000 0 -23489370.827 9928550.486 1288438.255 10 0 60932 71100.00000 0 -23098352.947 9932878.623 4484980.724 10 0 60932 72000.00000 0 -22373183.898 9714089.146 7594731.531 10 0 60932 72900.00000 0 -21356902.583 9234517.897 10557606.320 10 0 60932 73800.00000 0 -20101163.578 8466629.749 13316427.795 10 0 60932 74700.00000 0 -18664025.924 7394410.366 15818008.575 10 0 60932 75600.00000 0 -17107500.447 6014280.829 18014153.963 10 0 60932 76500.00000 0 -15494957.395 4335497.890 19862567.457 10 0 60932 77400.00000 0 -13888501.103 2380023.553 21327643.830 10 0 60932 78300.00000 0 -12346419.114 181869.126 22381136.721 10 0 60932 79200.00000 0 -10920809.658 -2214060.128 23002689.849 10 0 60932 80100.00000 0 -9655483.900 -4753573.678 23180223.058 10 0 60932 81000.00000 0 -8584228.190 -7375193.645 22910166.662 10 0 60932 81900.00000 0 -7729497.067 -10012462.264 22197539.696 10 0 60932 82800.00000 0 -7101590.603 -12596466.563 21055869.958 10 0 60932 83700.00000 0 -6698350.350 -15058478.865 19506956.023 10 0 60932 84600.00000 0 -6505387.287 -17332606.449 17580473.847 10 0 60932 85500.00000 0 -6496833.726 -19358342.484 15313433.121 10 0 60933 0.00000 0 -6636589.523 -21082913.361 12749491.415 10 0 60933 900.00000 0 -6880012.511 -22463325.813 9938135.256 10 0 60933 1800.00000 0 -7175983.815 -23468025.526 6933745.029 10 0 60933 2700.00000 0 -7469262.837 -24078099.452 3794555.247 10 0 60933 3600.00000 0 -7703033.199 -24287966.954 581532.326 10 0 60933 4500.00000 0 -7821532.027 -24105529.265 -2642810.220 10 0 60933 5400.00000 0 -7772650.333 -23551768.345 -5815635.771 10 0 60933 6300.00000 0 -7510392.410 -22659809.827 -8875023.046 10 0 60933 7200.00000 0 -6997087.369 -21473487.919 -11761193.260 10 0 60933 8100.00000 0 -6205255.874 -20045471.961 -14417700.053 10 0 60933 9000.00000 0 -5119049.542 -18435033.596 -16792556.675 10 0 60933 9900.00000 0 -3735198.677 -16705549.566 -18839276.009 10 0 60933 10800.00000 0 -2063425.272 -14921846.884 -20517800.919 10 0 60933 11700.00000 0 -126301.332 -13147504.144 -21795304.849 10 0 60933 12600.00000 0 2041443.135 -11442224.716 -22646845.543 10 0 60933 13500.00000 0 4394134.219 -9859394.288 -23055858.204 10 0 60933 14400.00000 0 6876839.360 -8443926.925 -23014478.087 10 0 60933 15300.00000 0 9427452.386 -7230491.071 -22523686.389 10 0 60933 16200.00000 0 11979089.863 -6242189.963 -21593277.273 10 0 60933 17100.00000 0 14462697.114 -5489751.015 -20241647.767 10 0 60933 18000.00000 0 16809753.492 -4971256.456 -18495416.080 10 0 60933 18900.00000 0 18954962.739 -4672424.008 -16388877.483 10 0 60933 19800.00000 0 20838815.392 -4567422.726 -13963310.171 10 0 60933 20700.00000 0 22409916.137 -4620186.294 -11266146.541 10 0 60933 21600.00000 0 23626979.614 -4786165.097 -8350027.869 10 0 60933 22500.00000 0 24460412.770 -5014440.104 -5271762.381 10 0 60933 23400.00000 0 24893419.722 -5250106.825 -2091208.491 10 0 60933 24300.00000 0 24922585.608 -5436826.883 1129894.124 10 0 60933 25200.00000 0 24557917.960 -5519438.462 4329122.256 10 0 60933 26100.00000 0 23822346.825 -5446515.232 7444572.386 10 0 60933 27000.00000 0 22750707.242 -5172766.388 10416046.470 10 0 60933 27900.00000 0 21388248.789 -4661177.725 13186198.375 10 0 60933 28800.00000 0 19788735.942 -3884805.145 15701620.188 10 0 60933 29700.00000 0 18012219.118 -2828146.705 17913849.356 10 0 60933 30600.00000 0 16122569.068 -1488036.988 19780279.382 10 0 60933 31500.00000 0 14184876.187 125972.842 21264958.789 10 0 60933 32400.00000 0 12262821.166 1991765.032 22339265.186 10 0 60933 33300.00000 0 10416123.977 4075329.733 22982443.440 10 0 60933 34200.00000 0 8698174.751 6331937.436 23181999.038 10 0 60933 35100.00000 0 7153942.539 8707762.919 22933940.027 10 0 60933 36000.00000 0 5818246.802 11141896.214 22242863.006 10 0 60933 36900.00000 0 4714462.068 13568660.371 21121880.964 10 0 60933 37800.00000 0 3853708.937 15920143.196 19592393.034 10 0 60933 38700.00000 0 3234565.231 18128840.911 17683698.650 10 0 60933 39600.00000 0 2843310.233 20130306.401 15432461.140 10 0 60933 40500.00000 0 2654693.210 21865693.548 12882028.440 10 0 60933 41400.00000 0 2633195.853 23284092.410 10081621.322 10 0 60933 42300.00000 0 2734737.471 24344557.410 7085402.411 10 0 60933 43200.00000 0 2908752.833 25017742.530 3951441.979 10 0 60933 44100.00000 0 3100556.152 25287072.934 740599.167 10 0 60933 45000.00000 0 3253891.697 25149401.303 -2484660.267 10 0 60933 45900.00000 0 3313562.650 24615118.536 -5661486.561 10 0 60933 46800.00000 0 3228025.420 23707711.528 -8727884.254 10 0 60933 47700.00000 0 2951837.243 22462784.435 -11623940.509 10 0 60933 48600.00000 0 2447850.430 20926583.168 -14293017.494 10 0 60933 49500.00000 0 1689056.964 19154084.564 -16682883.266 10 0 60933 50400.00000 0 660001.959 17206730.919 -18746756.680 10 0 60933 51300.00000 0 -642297.010 15149906.237 -20444243.688 10 0 60933 52200.00000 0 -2207966.297 13050261.930 -21742144.812 10 0 60933 53100.00000 0 -4014446.491 10973006.328 -22615116.487 10 0 60933 54000.00000 0 -6027210.718 8979273.813 -23046172.416 10 0 60933 54900.00000 0 -8201001.165 7123685.694 -23027014.744 10 0 60933 55800.00000 0 -10481531.498 5452206.282 -22558188.697 10 0 60933 56700.00000 0 -12807582.815 4000384.463 -21649058.383 10 0 60933 57600.00000 0 -15113403.945 2792053.943 -20317605.249 10 0 60933 58500.00000 0 -17331314.027 1838545.275 -18590054.631 10 0 60933 59400.00000 0 -19394397.042 1138440.381 -16500339.317 10 0 60933 60300.00000 0 -21239174.487 677876.898 -14089412.440 10 0 60933 61200.00000 0 -22808143.798 431386.095 -11404424.969 10 0 60933 62100.00000 0 -24052076.486 363225.460 -8497785.649 10 0 60933 63000.00000 0 -24931980.645 429146.343 -5426123.344 10 0 60933 63900.00000 0 -25420647.263 578519.019 -2249173.413 10 0 60933 64800.00000 0 -25503717.753 756723.071 971389.178 10 0 60933 65700.00000 0 -25180230.577 907700.556 4173146.729 10 0 60933 66600.00000 0 -24462626.756 976563.386 7294142.278 10 0 60933 67500.00000 0 -23376216.684 912144.987 10274066.767 10 0 60933 68400.00000 0 -21958132.725 669389.415 13055407.884 10 0 60933 69300.00000 0 -20255812.987 211478.597 15584539.777 10 0 60933 70200.00000 0 -18325080.381 -488390.206 17812734.483 10 0 60933 71100.00000 0 -16227896.998 -1445649.852 19697077.732 10 0 60933 72000.00000 0 -14029886.408 -2663487.249 21201273.717 10 0 60933 72900.00000 0 -11797725.239 -4132481.802 22296325.587 10 0 60933 73800.00000 0 -9596510.138 -5830773.621 22961080.532 10 0 60933 74700.00000 0 -7487206.814 -7724755.456 23182630.475 10 0 60933 75600.00000 0 -5524284.373 -9770261.367 22956561.592 10 0 60933 76500.00000 0 -3753630.633 -11914205.274 22287048.081 10 0 60933 77400.00000 0 -2210833.030 -14096604.305 21186787.815 10 0 60933 78300.00000 0 -919895.266 -16252906.155 19676779.845 10 0 60933 79200.00000 0 107557.446 -18316526.937 17785946.126 10 0 60933 80100.00000 0 872551.061 -20221496.673 15550602.355 10 0 60933 81000.00000 0 1388500.988 -21905104.387 13013785.487 10 0 60933 81900.00000 0 1680425.400 -23310433.640 10224448.195 10 0 60933 82800.00000 0 1783664.822 -24388682.717 7236533.403 10 0 60933 83700.00000 0 1742160.142 -25101171.505 4107944.745 10 0 60933 84600.00000 0 1606360.215 -25420949.128 899431.475 10 0 60933 85500.00000 0 1430846.663 -25333932.332 -2326591.179 10 0 60934 0.00000 0 1271776.314 -24839523.910 -5507262.943 10 0 60934 900.00000 0 1184250.409 -23950681.823 -8580517.776 10 0 60934 1800.00000 0 1219724.010 -22693434.118 -11486311.597 10 0 60934 2700.00000 0 1423567.619 -21105857.044 -14167818.201 10 0 60934 3600.00000 0 1832887.573 -19236558.541 -16572563.490 10 0 60934 4500.00000 0 2474700.748 -17142730.261 -18653475.159 10 0 60934 5400.00000 0 3364544.028 -14887850.434 -20369824.851 10 0 60934 6300.00000 0 4505580.216 -12539135.174 -21688042.388 10 0 60934 7200.00000 0 5888240.417 -10164846.927 -22582384.677 10 0 60934 8100.00000 0 7490419.546 -7831574.772 -23035445.207 10 0 60934 9000.00000 0 9278217.445 -5601602.352 -23038493.785 10 0 60934 9900.00000 0 11207194.351 -3530475.092 -22591639.956 10 0 60934 10800.00000 0 13224087.217 -1664869.318 -21703817.583 10 0 60934 11700.00000 0 15268913.522 -40852.357 -20392591.930 10 0 60934 12600.00000 0 17277372.743 1317394.476 -18683794.433 10 0 60934 13500.00000 0 19183443.138 2398338.475 -16610993.986 10 0 60934 14400.00000 0 20922063.598 3203314.492 -14214816.838 10 0 60934 15300.00000 0 22431787.107 3746194.395 -11542130.293 10 0 60934 16200.00000 0 23657294.220 4052524.654 -8645107.944 10 0 60934 17100.00000 0 24551661.466 4158172.124 -5580196.304 10 0 60934 18000.00000 0 25078290.567 4107538.545 -2407004.402 10 0 60934 18900.00000 0 25212419.239 3951422.069 812860.970 10 0 60934 19800.00000 0 24942152.366 3744618.218 4016991.156 10 0 60934 20700.00000 0 24268972.733 3543362.932 7143379.234 10 0 60934 21600.00000 0 23207712.363 3402726.005 10131608.452 10 0 60934 22500.00000 0 21785987.814 3374064.499 12924003.384 10 0 60934 23400.00000 0 20043124.754 3502642.353 15466722.984 10 0 60934 24300.00000 0 18028617.683 3825514.871 17710776.269 10 0 60934 25200.00000 0 15800189.212 4369765.317 19612943.207 10 0 60934 26100.00000 0 13421528.984 5151166.083 21136585.304 10 0 60934 27000.00000 0 10959804.769 6173319.362 22252332.507 10 0 60934 27900.00000 0 8483046.861 7427312.839 22938635.218 10 0 60934 28800.00000 0 6057511.700 8891905.081 23182172.282 10 0 60934 29700.00000 0 3745131.147 10534234.129 22978108.098 10 0 60934 30600.00000 0 1601150.416 12311021.811 22330194.142 10 0 60934 31500.00000 0 -327949.765 14170226.293 21250712.429 10 0 60934 32400.00000 0 -2006162.351 16053077.191 19760260.787 10 0 60934 33300.00000 0 -3409224.555 17896411.722 17887382.166 10 0 60934 34200.00000 0 -4525397.147 19635217.517 15668042.775 10 0 60934 35100.00000 0 -5355719.443 21205278.487 13144966.449 10 0 60934 36000.00000 0 -5913728.162 22545814.867 10366835.383 10 0 60934 36900.00000 0 -6224650.318 23602007.655 7387370.234 10 0 60934 37800.00000 0 -6324102.352 24327301.242 4264305.277 10 0 60934 38700.00000 0 -6256348.680 24685386.181 1058277.047 10 0 60934 39600.00000 0 -6072192.017 24651776.476 -2168352.672 10 0 60934 40500.00000 0 -5826584.176 24214912.117 -5352716.591 10 0 60934 41400.00000 0 -5576058.828 23376737.271 -8432679.830 10 0 60934 42300.00000 0 -5376096.174 22152726.613 -11348070.413 10 0 60934 43200.00000 0 -5278533.239 20571355.983 -14041876.361 10 0 60934 44100.00000 0 -5329132.159 18673037.532 -16461383.786 10 0 60934 45000.00000 0 -5565412.524 16508562.955 -18559231.336 10 0 60934 45900.00000 0 -6014842.621 14137119.902 -20294358.173 10 0 60934 46800.00000 0 -6693469.037 11623965.372 -21632824.975 10 0 60934 47700.00000 0 -7605044.922 9037854.905 -22548490.378 10 0 60934 48600.00000 0 -8740695.495 6448336.925 -23023528.606 10 0 60934 49500.00000 0 -10079135.868 3923027.260 -23048777.734 10 0 60934 50400.00000 0 -11587432.131 1524979.463 -22623911.852 10 0 60934 51300.00000 0 -13222273.103 -689738.033 -21757434.392 10 0 60934 52200.00000 0 -14931698.027 -2674156.274 -20466493.801 10 0 60934 53100.00000 0 -16657205.973 -4392123.718 -18776526.555 10 0 60934 54000.00000 0 -18336156.536 -5819557.342 -16720736.169 10 0 60934 54900.00000 0 -19904359.295 -6945176.869 -14339420.179 10 0 60934 55800.00000 0 -21298741.839 -7770694.420 -11679160.111 10 0 60934 56700.00000 0 -22459983.436 -8310455.242 -8791892.074 10 0 60934 57600.00000 0 -23335003.487 -8590548.470 -5733877.736 10 0 60934 58500.00000 0 -23879200.646 -8647429.083 -2564597.202 10 0 60934 59400.00000 0 -24058349.722 -8526112.524 654413.609 10 0 60934 60300.00000 0 -23850078.383 -8278020.831 3860757.843 10 0 60934 61200.00000 0 -23244863.742 -7958573.065 6992381.446 10 0 60934 62100.00000 0 -22246509.251 -7624622.668 9988762.809 10 0 60934 63000.00000 0 -20872083.991 -7331849.912 12792066.216 10 0 60934 63900.00000 0 -19151328.650 -7132218.556 15348238.151 10 0 60934 64800.00000 0 -17125554.115 -7071602.447 17608027.165 10 0 60934 65700.00000 0 -14846078.977 -7187680.076 19527909.766 10 0 60934 66600.00000 0 -12372270.560 -7508183.708 21070906.745 10 0 60934 67500.00000 0 -9769269.609 -8049574.878 22207276.446 10 0 60934 68400.00000 0 -7105491.008 -8816200.652 22915073.668 10 0 60934 69300.00000 0 -4450001.613 -9799965.561 23180564.968 10 0 60934 70200.00000 0 -1869880.888 -10980533.402 22998493.367 10 0 60934 71100.00000 0 572329.291 -12326051.881 22372187.666 10 0 60934 72000.00000 0 2820982.738 -13794372.000 21313513.755 10 0 60934 72900.00000 0 4829399.414 -15334714.092 19842667.676 10 0 60934 73800.00000 0 6561563.866 -16889714.060 17987812.530 10 0 60934 74700.00000 0 7993381.729 -18397767.452 15784563.899 10 0 60934 75600.00000 0 9113441.849 -19795576.108 13275331.061 10 0 60934 76500.00000 0 9923251.390 -21020792.911 10508523.980 10 0 60934 77400.00000 0 10436932.671 -22014654.959 7537638.967 10 0 60934 78300.00000 0 10680392.747 -22724494.801 4420238.573 10 0 60934 79200.00000 0 10689998.967 -23106023.252 1216843.985 10 0 60934 80100.00000 0 10510814.867 -23125285.815 -2010239.292 10 0 60934 81000.00000 0 10194470.012 -22760207.570 -5198139.643 10 0 60934 81900.00000 0 9796753.705 -22001658.220 -8284656.996 10 0 60934 82800.00000 0 9375035.069 -20853988.995 -11209494.295 10 0 60934 83700.00000 0 8985620.319 -19335015.610 -13915456.872 10 0 60934 84600.00000 0 8681161.318 -17475445.259 -16349594.041 10 0 60934 85500.00000 0 8508227.931 -15317769.849 -18464258.232 10 0 60935 0.00000 0 8505149.815 -12914671.153 -20218058.555 10 0 60935 900.00000 0 8700221.841 -10327003.340 -21576689.093 10 0 60935 1800.00000 0 9110351.468 -7621441.426 -22513611.851 10 0 60935 2700.00000 0 9740207.049 -4867891.140 -23010583.129 10 0 60935 3600.00000 0 10581904.229 -2136773.266 -23058010.126 10 0 60935 4500.00000 0 11615243.920 503703.554 -22655131.839 10 0 60935 5400.00000 0 12808491.366 2990166.099 -21810021.169 10 0 60935 6300.00000 0 14119662.350 5266485.601 -20539409.211 10 0 60935 7200.00000 0 15498260.694 7285871.831 -18868336.534 10 0 60935 8100.00000 0 16887391.988 9012565.641 -16829639.949 10 0 60935 9000.00000 0 18226162.624 10423060.971 -14463286.562 10 0 60935 9900.00000 0 19452261.376 11506807.790 -11815570.032 10 0 60935 10800.00000 0 20504613.533 12266369.821 -8938186.536 10 0 60935 11700.00000 0 21325995.142 12717034.174 -5887210.126 10 0 60935 12600.00000 0 21865497.217 12885893.143 -2721988.939 10 0 60935 13500.00000 0 22080736.888 12810440.439 496015.200 10 0 60935 14400.00000 0 21939723.675 12536744.195 3704420.544 10 0 60935 15300.00000 0 21422304.156 12117276.117 6841129.187 10 0 60935 16200.00000 0 20521126.330 11608489.888 9845517.822 10 0 60935 17100.00000 0 19242085.147 11068251.426 12659593.399 10 0 60935 18000.00000 0 17604232.305 10553228.919 15229092.637 10 0 60935 18900.00000 0 15639155.286 10116351.402 17504506.038 10 0 60935 19800.00000 0 13389852.103 9804440.981 19442008.763 10 0 60935 20700.00000 0 10909148.395 9656116.231 21004282.680 10 0 60935 21600.00000 0 8257721.609 9700052.680 22161216.001 10 0 60935 22500.00000 0 5501812.416 9953671.650 22890469.050 10 0 60935 23400.00000 0 2710715.768 10422311.234 23177896.852 10 0 60935 24300.00000 0 -45847.429 11098913.814 23017821.422 10 0 60935 25200.00000 0 -2700372.317 11964243.753 22413148.833 10 0 60935 26100.00000 0 -5190119.334 12987627.642 21375328.361 10 0 60935 27000.00000 0 -7459467.706 14128188.382 19924153.330 10 0 60935 27900.00000 0 -9461977.548 15336524.246 18087405.647 10 0 60935 28800.00000 0 -11162076.063 16556765.651 15900348.550 10 0 60935 29700.00000 0 -12536298.036 17728926.359 13405074.721 10 0 60935 30600.00000 0 -13574028.352 18791452.933 10649719.624 10 0 60935 31500.00000 0 -14277714.309 19683867.084 7687552.778 10 0 60935 32400.00000 0 -14662537.198 20349390.483 4575962.434 10 0 60935 33300.00000 0 -14755555.110 20737441.206 1375351.771 10 0 60935 34200.00000 0 -14594351.328 20805895.149 -1852032.704 10 0 60935 35100.00000 0 -14225244.025 20523014.647 -5043317.824 10 0 60935 36000.00000 0 -13701132.231 19868959.878 -8136241.089 10 0 60935 36900.00000 0 -13079069.260 18836815.799 -11070383.097 10 0 60935 37800.00000 0 -12417667.281 17433087.818 -13788369.123 10 0 60935 38700.00000 0 -11774444.584 15677642.125 -16237014.168 10 0 60935 39600.00000 0 -11203230.155 13603090.618 -18368386.707 10 0 60935 40500.00000 0 -10751738.041 11253644.548 -20140768.110 10 0 60935 41400.00000 0 -10459416.798 8683484.123 -21519486.972 10 0 60935 42300.00000 0 -10355667.383 5954712.527 -22477610.459 10 0 60935 43200.00000 0 -10458506.742 3134980.819 -22996478.076 10 0 60935 44100.00000 0 -10773734.764 294884.335 -23066066.918 10 0 60935 45000.00000 0 -11294640.198 -2494758.960 -22685181.284 10 0 60935 45900.00000 0 -12002257.582 -5165633.081 -21861463.532 10 0 60935 46800.00000 0 -12866163.217 -7654536.712 -20611226.965 10 0 60935 47700.00000 0 -13845774.931 -9905774.380 -18959115.382 10 0 60935 48600.00000 0 -14892098.721 -11873226.575 -16937597.619 10 0 60935 49500.00000 0 -15949846.448 -13522013.517 -14586308.734 10 0 60935 50400.00000 0 -16959833.125 -14829685.024 -11951252.601 10 0 60935 51300.00000 0 -17861550.957 -15786889.540 -9083883.319 10 0 60935 52200.00000 0 -18595810.333 -16397497.685 -6040085.013 10 0 60935 53100.00000 0 -19107335.796 -16678178.869 -2879071.404 10 0 60935 54000.00000 0 -19347207.646 -16657452.528 337772.323 10 0 60935 54900.00000 0 -19275047.084 -16374257.295 3548082.178 10 0 60935 55800.00000 0 -18860854.187 -15876101.218 6689719.115 10 0 60935 56700.00000 0 -18086423.096 -15216872.930 9701960.921 10 0 60935 57600.00000 0 -16946276.795 -14454407.065 12526660.008 10 0 60935 58500.00000 0 -15448083.973 -13647906.510 15109346.087 10 0 60935 59400.00000 0 -13612541.858 -12855329.173 17400254.245 10 0 60935 60300.00000 0 -11472730.621 -12130847.549 19355260.730 10 0 60935 61200.00000 0 -9072966.294 -11522485.748 20936710.649 10 0 60935 62100.00000 0 -6467199.075 -11070030.859 22114123.908 10 0 60935 63000.00000 0 -3717021.894 -10803304.030 22864767.819 10 0 60935 63900.00000 0 -889369.480 -10740861.941 23174086.965 10 0 60935 64800.00000 0 1945999.620 -10889181.932 23035983.069 10 0 60935 65700.00000 0 4719137.044 -11242364.618 22452939.846 10 0 60935 66600.00000 0 7362548.728 -11782367.117 21435990.010 10 0 60935 67500.00000 0 9813742.527 -12479758.616 20004523.920 10 0 60935 68400.00000 0 12017576.101 -13294968.878 18185941.736 10 0 60935 69300.00000 0 13928309.164 -14179980.028 16015153.490 10 0 60935 70200.00000 0 15511275.480 -15080393.436 13533934.067 10 0 60935 71100.00000 0 16744104.780 -15937787.484 10790142.853 10 0 60935 72000.00000 0 17617442.602 -16692269.072 7836820.613 10 0 60935 72900.00000 0 18135136.360 -17285112.631 4731178.943 10 0 60935 73800.00000 0 18313877.937 -17661375.580 1533500.308 10 0 60935 74700.00000 0 18182315.862 -17772378.978 -1694030.771 10 0 60935 75600.00000 0 17779672.823 -17577946.682 -4888542.762 10 0 60935 76500.00000 0 17153925.627 -17048305.692 -7987714.029 10 0 60935 77400.00000 0 16359624.096 -16165564.017 -10931006.131 10 0 60935 78300.00000 0 15455441.446 -14924700.093 -13660867.529 10 0 60935 79200.00000 0 14501560.944 -13334018.472 -16123882.023 10 0 60935 80100.00000 0 13557011.210 -11415049.506 -18271837.057 10 0 60935 81000.00000 0 12677065.196 -9201894.883 -20062688.769 10 0 60935 81900.00000 0 11910815.265 -6740044.925 -21461402.916 10 0 60935 82800.00000 0 11299029.225 -4084716.732 -22440653.583 10 0 60935 83700.00000 0 10872379.868 -1298782.989 -22981364.966 10 0 60935 84600.00000 0 10650124.069 1549620.974 -23073085.063 10 0 60935 85500.00000 0 10639287.806 4389710.471 -22714183.994 99